Location: Johnson City
(36.3130°N, 82.3540°W)
Time: 15:38:24
(UTC-05:00)

X-37B - Pass Details

Date: 06 December 2021
Orbit: 334 x 337 km, 45.0° (Epoch: 11 January)

Event Time Altitude Azimuth Distance (km) Brightness Sun altitude
Rises 17:56:30 0° 228° (SW) 2,089 5.8 -8.6°
Reaches altitude 10° 17:58:31 10° 222° (SW) 1,256 4.3 -8.9°
Maximum altitude 18:01:15 49° 146° (SSE) 437 0.7 -9.5°
Enters shadow 18:03:20 16° 74° (ENE) 997 2.0 -9.9°
